Year,Month,Day,Hour,Minute,Value (Times are PST for windgust in km/hr)
2010,04,03,00,00,16.10
2010,04,03,00,01,19.30
2010,04,03,00,02,17.70
2010,04,03,00,03,29.00
2010,04,03,00,04,25.70
2010,04,03,00,05,38.60
2010,04,03,00,06,37.00
2010,04,03,00,07,25.70
2010,04,03,00,08,20.90
2010,04,03,00,09,14.50
2010,04,03,00,10,11.30
2010,04,03,00,11,24.20
2010,04,03,00,12,27.40
2010,04,03,00,13,17.70
2010,04,03,00,14,14.50
2010,04,03,00,15,29.00
2010,04,03,00,16,19.30
2010,04,03,00,17,25.70
2010,04,03,00,18,9.60
2010,04,03,00,19,29.00
2010,04,03,00,20,25.70
2010,04,03,00,21,17.70
2010,04,03,00,22,16.10
2010,04,03,00,23,27.40
2010,04,03,00,24,24.20
2010,04,03,00,25,16.10
2010,04,03,00,26,11.30
2010,04,03,00,27,6.40
2010,04,03,00,28,9.60
2010,04,03,00,29,8.10
2010,04,03,00,30,6.40
2010,04,03,00,31,9.60
2010,04,03,00,32,17.70
2010,04,03,00,33,25.70
2010,04,03,00,34,29.00
2010,04,03,00,35,19.30
2010,04,03,00,36,27.40
2010,04,03,00,37,45.10
2010,04,03,00,38,38.60
2010,04,03,00,39,35.40
2010,04,03,00,40,35.40
2010,04,03,00,41,35.40
2010,04,03,00,42,35.40
2010,04,03,00,43,40.20
2010,04,03,00,44,29.00
2010,04,03,00,45,22.50
2010,04,03,00,46,24.20
2010,04,03,00,47,24.20
2010,04,03,00,48,27.40
2010,04,03,00,49,25.70
2010,04,03,00,50,25.70
2010,04,03,00,51,35.40
2010,04,03,00,52,30.60
2010,04,03,00,53,22.50
2010,04,03,00,54,24.20
2010,04,03,00,55,24.20
2010,04,03,00,56,32.20
2010,04,03,00,57,27.40
2010,04,03,00,58,25.70
2010,04,03,00,59,24.20
2010,04,03,01,00,17.70
2010,04,03,01,01,33.80
2010,04,03,01,02,33.80
2010,04,03,01,03,19.30
2010,04,03,01,04,24.20
2010,04,03,01,05,38.60
2010,04,03,01,06,24.20
2010,04,03,01,07,25.70
2010,04,03,01,08,24.20
2010,04,03,01,09,11.30
2010,04,03,01,10,16.10
2010,04,03,01,11,19.30
2010,04,03,01,12,38.60
2010,04,03,01,13,35.40
2010,04,03,01,14,27.40
2010,04,03,01,15,19.30
2010,04,03,01,16,29.00
2010,04,03,01,17,20.90
2010,04,03,01,18,22.50
2010,04,03,01,19,29.00
2010,04,03,01,20,29.00
2010,04,03,01,21,37.00
2010,04,03,01,22,49.90
2010,04,03,01,23,45.10
2010,04,03,01,24,43.50
2010,04,03,01,25,32.20
2010,04,03,01,26,37.00
2010,04,03,01,27,27.40
2010,04,03,01,28,25.70
2010,04,03,01,29,40.20
2010,04,03,01,30,30.60
2010,04,03,01,31,24.20
2010,04,03,01,32,22.50
2010,04,03,01,33,24.20
2010,04,03,01,34,32.20
2010,04,03,01,35,22.50
2010,04,03,01,36,35.40
2010,04,03,01,37,30.60
2010,04,03,01,38,25.70
2010,04,03,01,39,25.70
2010,04,03,01,40,19.30
2010,04,03,01,41,19.30
2010,04,03,01,42,24.20
2010,04,03,01,43,29.00
2010,04,03,01,44,16.10
2010,04,03,01,45,16.10
2010,04,03,01,46,22.50
2010,04,03,01,47,20.90
2010,04,03,01,48,17.70
2010,04,03,01,49,12.90
2010,04,03,01,50,16.10
2010,04,03,01,51,19.30
2010,04,03,01,52,19.30
2010,04,03,01,53,17.70
2010,04,03,01,54,16.10
2010,04,03,01,55,11.30
2010,04,03,01,56,20.90
2010,04,03,01,57,24.20
2010,04,03,01,58,14.50
2010,04,03,01,59,19.30
2010,04,03,02,00,29.00
2010,04,03,02,01,30.60
2010,04,03,02,02,20.90
2010,04,03,02,03,14.50
2010,04,03,02,04,20.90
2010,04,03,02,05,19.30
2010,04,03,02,06,24.20
2010,04,03,02,07,11.30
2010,04,03,02,08,17.70
2010,04,03,02,09,12.90
2010,04,03,02,10,29.00
2010,04,03,02,11,17.70
2010,04,03,02,12,19.30
2010,04,03,02,13,17.70
2010,04,03,02,14,14.50
2010,04,03,02,15,22.50
2010,04,03,02,16,16.10
2010,04,03,02,17,14.50
2010,04,03,02,18,19.30
2010,04,03,02,19,17.70
2010,04,03,02,20,22.50
2010,04,03,02,21,16.10
2010,04,03,02,22,17.70
2010,04,03,02,23,11.30
2010,04,03,02,24,12.90
2010,04,03,02,25,20.90
2010,04,03,02,26,20.90
2010,04,03,02,27,17.70
2010,04,03,02,28,20.90
2010,04,03,02,29,25.70
2010,04,03,02,30,27.40
2010,04,03,02,31,17.70
2010,04,03,02,32,30.60
2010,04,03,02,33,32.20
2010,04,03,02,34,17.70
2010,04,03,02,35,16.10
2010,04,03,02,36,11.30
2010,04,03,02,37,14.50
2010,04,03,02,38,12.90
2010,04,03,02,39,9.60
2010,04,03,02,40,9.60
2010,04,03,02,41,9.60
2010,04,03,02,42,20.90
2010,04,03,02,43,14.50
2010,04,03,02,44,8.10
2010,04,03,02,45,16.10
2010,04,03,02,46,20.90
2010,04,03,02,47,11.30
2010,04,03,02,48,9.60
2010,04,03,02,49,11.30
2010,04,03,02,50,14.50
2010,04,03,02,51,14.50
2010,04,03,02,52,16.10
2010,04,03,02,53,11.30
2010,04,03,02,54,9.60
2010,04,03,02,55,9.60
2010,04,03,02,56,11.30
2010,04,03,02,57,19.30
2010,04,03,02,58,16.10
2010,04,03,02,59,14.50
2010,04,03,03,00,8.10
2010,04,03,03,01,16.10
2010,04,03,03,02,11.30
2010,04,03,03,03,9.60
2010,04,03,03,04,11.30
2010,04,03,03,05,14.50
2010,04,03,03,06,16.10
2010,04,03,03,07,33.80
2010,04,03,03,08,24.20
2010,04,03,03,09,19.30
2010,04,03,03,10,16.10
2010,04,03,03,11,24.20
2010,04,03,03,12,24.20
2010,04,03,03,13,20.90
2010,04,03,03,14,19.30
2010,04,03,03,15,14.50
2010,04,03,03,16,11.30
2010,04,03,03,17,24.20
2010,04,03,03,18,22.50
2010,04,03,03,19,14.50
2010,04,03,03,20,16.10
2010,04,03,03,21,24.20
2010,04,03,03,22,29.00
2010,04,03,03,23,32.20
2010,04,03,03,24,27.40
2010,04,03,03,25,22.50
2010,04,03,03,26,19.30
2010,04,03,03,27,14.50
2010,04,03,03,28,9.60
2010,04,03,03,29,12.90
2010,04,03,03,30,19.30
2010,04,03,03,31,17.70
2010,04,03,03,32,22.50
2010,04,03,03,33,30.60
2010,04,03,03,34,48.30
2010,04,03,03,35,49.90
2010,04,03,03,36,41.80
2010,04,03,03,37,54.70
2010,04,03,03,38,35.40
2010,04,03,03,39,30.60
2010,04,03,03,40,48.30
2010,04,03,03,41,46.70
2010,04,03,03,42,43.50
2010,04,03,03,43,35.40
2010,04,03,03,44,49.90
2010,04,03,03,45,61.20
2010,04,03,03,46,49.90
2010,04,03,03,47,62.70
2010,04,03,03,48,54.70
2010,04,03,03,49,35.40
2010,04,03,03,50,57.90
2010,04,03,03,51,45.10
2010,04,03,03,52,38.60
2010,04,03,03,53,33.80
2010,04,03,03,54,33.80
2010,04,03,03,55,25.70
2010,04,03,03,56,35.40
2010,04,03,03,57,27.40
2010,04,03,03,58,27.40
2010,04,03,03,59,22.50
2010,04,03,04,00,33.80
2010,04,03,04,01,27.40
2010,04,03,04,02,33.80
2010,04,03,04,03,41.80
2010,04,03,04,04,40.20
2010,04,03,04,05,35.40
2010,04,03,04,06,35.40
2010,04,03,04,07,29.00
2010,04,03,04,08,29.00
2010,04,03,04,09,30.60
2010,04,03,04,10,35.40
2010,04,03,04,11,24.20
2010,04,03,04,12,33.80
2010,04,03,04,13,29.00
2010,04,03,04,14,41.80
2010,04,03,04,15,24.20
2010,04,03,04,16,38.60
2010,04,03,04,17,33.80
2010,04,03,04,18,46.70
2010,04,03,04,19,41.80
2010,04,03,04,20,46.70
2010,04,03,04,21,43.50
2010,04,03,04,22,33.80
2010,04,03,04,23,32.20
2010,04,03,04,24,45.10
2010,04,03,04,25,38.60
2010,04,03,04,26,29.00
2010,04,03,04,27,27.40
2010,04,03,04,28,30.60
2010,04,03,04,29,22.50
2010,04,03,04,30,29.00
2010,04,03,04,31,27.40
2010,04,03,04,32,29.00
2010,04,03,04,33,22.50
2010,04,03,04,34,32.20
2010,04,03,04,35,24.20
2010,04,03,04,36,22.50
2010,04,03,04,37,32.20
2010,04,03,04,38,20.90
2010,04,03,04,39,30.60
2010,04,03,04,40,27.40
2010,04,03,04,41,25.70
2010,04,03,04,42,22.50
2010,04,03,04,43,20.90
2010,04,03,04,44,19.30
2010,04,03,04,45,29.00
2010,04,03,04,46,30.60
2010,04,03,04,47,24.20
2010,04,03,04,48,27.40
2010,04,03,04,49,19.30
2010,04,03,04,50,24.20
2010,04,03,04,51,24.20
2010,04,03,04,52,19.30
2010,04,03,04,53,27.40
2010,04,03,04,54,30.60
2010,04,03,04,55,22.50
2010,04,03,04,56,29.00
2010,04,03,04,57,14.50
2010,04,03,04,58,17.70
2010,04,03,04,59,20.90
2010,04,03,05,00,27.40
2010,04,03,05,01,20.90
2010,04,03,05,02,20.90
2010,04,03,05,03,29.00
2010,04,03,05,04,29.00
2010,04,03,05,05,24.20
2010,04,03,05,06,30.60
2010,04,03,05,07,29.00
2010,04,03,05,08,19.30
2010,04,03,05,09,17.70
2010,04,03,05,10,14.50
2010,04,03,05,11,17.70
2010,04,03,05,12,14.50
2010,04,03,05,13,20.90
2010,04,03,05,14,24.20
2010,04,03,05,15,19.30
2010,04,03,05,16,20.90
2010,04,03,05,17,20.90
2010,04,03,05,18,22.50
2010,04,03,05,19,20.90
2010,04,03,05,20,16.10
2010,04,03,05,21,9.60
2010,04,03,05,22,19.30
2010,04,03,05,23,22.50
2010,04,03,05,24,22.50
2010,04,03,05,25,22.50
2010,04,03,05,26,19.30
2010,04,03,05,27,19.30
2010,04,03,05,28,16.10
2010,04,03,05,29,20.90
2010,04,03,05,30,22.50
2010,04,03,05,31,20.90
2010,04,03,05,32,25.70
2010,04,03,05,33,25.70
2010,04,03,05,34,19.30
2010,04,03,05,35,19.30
2010,04,03,05,36,25.70
2010,04,03,05,37,19.30
2010,04,03,05,38,16.10
2010,04,03,05,39,22.50
2010,04,03,05,40,22.50
2010,04,03,05,41,17.70
2010,04,03,05,42,17.70
2010,04,03,05,43,16.10
2010,04,03,05,44,16.10
2010,04,03,05,45,30.60
2010,04,03,05,46,17.70
2010,04,03,05,47,16.10
2010,04,03,05,48,16.10
2010,04,03,05,49,11.30
2010,04,03,05,50,14.50
2010,04,03,05,51,8.10
2010,04,03,05,52,8.10
2010,04,03,05,53,14.50
2010,04,03,05,54,16.10
2010,04,03,05,55,29.00
2010,04,03,05,56,19.30
2010,04,03,05,57,17.70
2010,04,03,05,58,9.60
2010,04,03,05,59,16.10
2010,04,03,06,00,22.50
2010,04,03,06,01,20.90
2010,04,03,06,02,9.60
2010,04,03,06,03,11.30
2010,04,03,06,04,8.10
2010,04,03,06,05,6.40
2010,04,03,06,06,11.30
2010,04,03,06,07,8.10
2010,04,03,06,08,14.50
2010,04,03,06,09,19.30
2010,04,03,06,10,17.70
2010,04,03,06,11,17.70
2010,04,03,06,12,22.50
2010,04,03,06,13,14.50
2010,04,03,06,14,24.20
2010,04,03,06,15,29.00
2010,04,03,06,16,20.90
2010,04,03,06,17,14.50
2010,04,03,06,18,17.70
2010,04,03,06,19,19.30
2010,04,03,06,20,30.60
2010,04,03,06,21,27.40
2010,04,03,06,22,25.70
2010,04,03,06,23,25.70
2010,04,03,06,24,24.20
2010,04,03,06,25,17.70
2010,04,03,06,26,17.70
2010,04,03,06,27,16.10
2010,04,03,06,28,17.70
2010,04,03,06,29,32.20
2010,04,03,06,30,24.20
2010,04,03,06,31,30.60
2010,04,03,06,32,20.90
2010,04,03,06,33,24.20
2010,04,03,06,34,25.70
2010,04,03,06,35,19.30
2010,04,03,06,36,19.30
2010,04,03,06,37,17.70
2010,04,03,06,38,20.90
2010,04,03,06,39,14.50
2010,04,03,06,40,19.30
2010,04,03,06,41,17.70
2010,04,03,06,42,25.70
2010,04,03,06,43,17.70
2010,04,03,06,44,25.70
2010,04,03,06,45,16.10
2010,04,03,06,46,6.40
2010,04,03,06,47,14.50
2010,04,03,06,48,8.10
2010,04,03,06,49,16.10
2010,04,03,06,50,14.50
2010,04,03,06,51,17.70
2010,04,03,06,52,24.20
2010,04,03,06,53,11.30
2010,04,03,06,54,11.30
2010,04,03,06,55,14.50
2010,04,03,06,56,11.30
2010,04,03,06,57,11.30
2010,04,03,06,58,9.60
2010,04,03,06,59,9.60
2010,04,03,07,00,8.10
2010,04,03,07,01,6.40
2010,04,03,07,02,11.30
2010,04,03,07,03,11.30
2010,04,03,07,04,14.50
2010,04,03,07,05,12.90
2010,04,03,07,06,12.90
2010,04,03,07,07,9.60
2010,04,03,07,08,11.30
2010,04,03,07,09,9.60
2010,04,03,07,10,9.60
2010,04,03,07,11,9.60
2010,04,03,07,12,11.30
2010,04,03,07,13,17.70
2010,04,03,07,14,16.10
2010,04,03,07,15,16.10
2010,04,03,07,16,11.30
2010,04,03,07,17,12.90
2010,04,03,07,18,9.60
2010,04,03,07,19,11.30
2010,04,03,07,20,11.30
2010,04,03,07,21,9.60
2010,04,03,07,22,11.30
2010,04,03,07,23,11.30
2010,04,03,07,24,8.10
2010,04,03,07,25,4.80
2010,04,03,07,26,3.20
2010,04,03,07,27,11.30
2010,04,03,07,28,6.40
2010,04,03,07,29,4.80
2010,04,03,07,30,4.80
2010,04,03,07,31,4.80
2010,04,03,07,32,14.50
2010,04,03,07,33,8.10
2010,04,03,07,34,14.50
2010,04,03,07,35,14.50
2010,04,03,07,36,6.40
2010,04,03,07,37,8.10
2010,04,03,07,38,6.40
2010,04,03,07,39,8.10
2010,04,03,07,40,6.40
2010,04,03,07,41,4.80
2010,04,03,07,42,4.80
2010,04,03,07,43,6.40
2010,04,03,07,44,4.80
2010,04,03,07,45,8.10
2010,04,03,07,46,3.20
2010,04,03,07,47,8.10
2010,04,03,07,48,8.10
2010,04,03,07,49,8.10
2010,04,03,07,50,14.50
2010,04,03,07,51,12.90
2010,04,03,07,52,8.10
2010,04,03,07,53,6.40
2010,04,03,07,54,4.80
2010,04,03,07,55,8.10
2010,04,03,07,56,6.40
2010,04,03,07,57,4.80
2010,04,03,07,58,6.40
2010,04,03,07,59,6.40
2010,04,03,08,00,9.60
2010,04,03,08,01,11.30
2010,04,03,08,02,11.30
2010,04,03,08,03,8.10
2010,04,03,08,04,9.60
2010,04,03,08,05,11.30
2010,04,03,08,06,8.10
2010,04,03,08,07,14.50
2010,04,03,08,08,6.40
2010,04,03,08,09,14.50
2010,04,03,08,10,20.90
2010,04,03,08,11,17.70
2010,04,03,08,12,20.90
2010,04,03,08,13,11.30
2010,04,03,08,14,8.10
2010,04,03,08,15,8.10
2010,04,03,08,16,14.50
2010,04,03,08,17,12.90
2010,04,03,08,18,11.30
2010,04,03,08,19,9.60
2010,04,03,08,20,9.60
2010,04,03,08,21,6.40
2010,04,03,08,22,9.60
2010,04,03,08,23,9.60
2010,04,03,08,24,16.10
2010,04,03,08,25,17.70
2010,04,03,08,26,16.10
2010,04,03,08,27,16.10
2010,04,03,08,28,11.30
2010,04,03,08,29,9.60
2010,04,03,08,30,11.30
2010,04,03,08,31,9.60
2010,04,03,08,32,8.10
2010,04,03,08,33,14.50
2010,04,03,08,34,17.70
2010,04,03,08,35,8.10
2010,04,03,08,36,11.30
2010,04,03,08,37,11.30
2010,04,03,08,38,8.10
2010,04,03,08,39,8.10
2010,04,03,08,40,9.60
2010,04,03,08,41,11.30
2010,04,03,08,42,14.50
2010,04,03,08,43,11.30
2010,04,03,08,44,11.30
2010,04,03,08,45,9.60
2010,04,03,08,46,8.10
2010,04,03,08,47,6.40
2010,04,03,08,48,11.30
2010,04,03,08,49,14.50
2010,04,03,08,50,14.50
2010,04,03,08,51,14.50
2010,04,03,08,52,17.70
2010,04,03,08,53,19.30
2010,04,03,08,54,17.70
2010,04,03,08,55,16.10
2010,04,03,08,56,16.10
2010,04,03,08,57,4.80
2010,04,03,08,58,11.30
2010,04,03,08,59,16.10
2010,04,03,09,00,8.10
2010,04,03,09,01,11.30
2010,04,03,09,02,17.70
2010,04,03,09,03,14.50
2010,04,03,09,04,16.10
2010,04,03,09,05,17.70
2010,04,03,09,06,9.60
2010,04,03,09,07,8.10
2010,04,03,09,08,8.10
2010,04,03,09,09,6.40
2010,04,03,09,10,4.80
2010,04,03,09,11,6.40
2010,04,03,09,12,3.20
2010,04,03,09,13,3.20
2010,04,03,09,14,4.80
2010,04,03,09,15,4.80
2010,04,03,09,16,4.80
2010,04,03,09,17,6.40
2010,04,03,09,18,8.10
2010,04,03,09,19,11.30
2010,04,03,09,20,11.30
2010,04,03,09,21,17.70
2010,04,03,09,22,20.90
2010,04,03,09,23,17.70
2010,04,03,09,24,9.60
2010,04,03,09,25,16.10
2010,04,03,09,26,8.10
2010,04,03,09,27,12.90
2010,04,03,09,28,14.50
2010,04,03,09,29,11.30
2010,04,03,09,30,8.10
2010,04,03,09,31,6.40
2010,04,03,09,32,11.30
2010,04,03,09,33,8.10
2010,04,03,09,34,6.40
2010,04,03,09,35,9.60
2010,04,03,09,36,14.50
2010,04,03,09,37,19.30
2010,04,03,09,38,16.10
2010,04,03,09,39,19.30
2010,04,03,09,40,17.70
2010,04,03,09,41,17.70
2010,04,03,09,42,14.50
2010,04,03,09,43,17.70
2010,04,03,09,44,24.20
2010,04,03,09,45,22.50
2010,04,03,09,46,29.00
2010,04,03,09,47,30.60
2010,04,03,09,48,24.20
2010,04,03,09,49,19.30
2010,04,03,09,50,12.90
2010,04,03,09,51,25.70
2010,04,03,09,52,16.10
2010,04,03,09,53,14.50
2010,04,03,09,54,16.10
2010,04,03,09,55,20.90
2010,04,03,09,56,19.30
2010,04,03,09,57,14.50
2010,04,03,09,58,27.40
2010,04,03,09,59,20.90
2010,04,03,10,00,24.20
2010,04,03,10,01,20.90
2010,04,03,10,02,33.80
2010,04,03,10,03,22.50
2010,04,03,10,04,11.30
2010,04,03,10,05,11.30
2010,04,03,10,06,9.60
2010,04,03,10,07,9.60
2010,04,03,10,08,9.60
2010,04,03,10,09,14.50
2010,04,03,10,10,11.30
2010,04,03,10,11,14.50
2010,04,03,10,12,16.10
2010,04,03,10,13,16.10
2010,04,03,10,14,8.10
2010,04,03,10,15,11.30
2010,04,03,10,16,27.40
2010,04,03,10,17,20.90
2010,04,03,10,18,16.10
2010,04,03,10,19,9.60
2010,04,03,10,20,11.30
2010,04,03,10,21,19.30
2010,04,03,10,22,20.90
2010,04,03,10,23,25.70
2010,04,03,10,24,22.50
2010,04,03,10,25,20.90
2010,04,03,10,26,11.30
2010,04,03,10,27,35.40
2010,04,03,10,28,29.00
2010,04,03,10,29,16.10
2010,04,03,10,30,24.20
2010,04,03,10,31,22.50
2010,04,03,10,32,19.30
2010,04,03,10,33,22.50
2010,04,03,10,34,17.70
2010,04,03,10,35,22.50
2010,04,03,10,36,30.60
2010,04,03,10,37,22.50
2010,04,03,10,38,20.90
2010,04,03,10,39,24.20
2010,04,03,10,40,22.50
2010,04,03,10,41,17.70
2010,04,03,10,42,12.90
2010,04,03,10,43,16.10
2010,04,03,10,44,9.60
2010,04,03,10,45,11.30
2010,04,03,10,46,12.90
2010,04,03,10,47,11.30
2010,04,03,10,48,11.30
2010,04,03,10,49,8.10
2010,04,03,10,50,6.40
2010,04,03,10,51,11.30
2010,04,03,10,52,9.60
2010,04,03,10,53,6.40
2010,04,03,10,54,8.10
2010,04,03,10,55,8.10
2010,04,03,10,56,9.60
2010,04,03,10,57,4.80
2010,04,03,10,58,9.60
2010,04,03,10,59,8.10
2010,04,03,11,00,9.60
2010,04,03,11,01,16.10
2010,04,03,11,02,8.10
2010,04,03,11,03,9.60
2010,04,03,11,04,6.40
2010,04,03,11,05,6.40
2010,04,03,11,06,19.30
2010,04,03,11,07,19.30
2010,04,03,11,08,19.30
2010,04,03,11,09,19.30
2010,04,03,11,10,12.90
2010,04,03,11,11,14.50
2010,04,03,11,12,8.10
2010,04,03,11,13,12.90
2010,04,03,11,14,20.90
2010,04,03,11,15,14.50
2010,04,03,11,16,16.10
2010,04,03,11,17,17.70
2010,04,03,11,18,17.70
2010,04,03,11,19,11.30
2010,04,03,11,20,14.50
2010,04,03,11,21,9.60
2010,04,03,11,22,9.60
2010,04,03,11,23,11.30
2010,04,03,11,24,8.10
2010,04,03,11,25,8.10
2010,04,03,11,26,14.50
2010,04,03,11,27,9.60
2010,04,03,11,28,16.10
2010,04,03,11,29,14.50
2010,04,03,11,30,9.60
2010,04,03,11,31,6.40
2010,04,03,11,32,9.60
2010,04,03,11,33,8.10
2010,04,03,11,34,11.30
2010,04,03,11,35,9.60
2010,04,03,11,36,6.40
2010,04,03,11,37,6.40
2010,04,03,11,38,9.60
2010,04,03,11,39,11.30
2010,04,03,11,40,14.50
2010,04,03,11,41,11.30
2010,04,03,11,42,9.60
2010,04,03,11,43,9.60
2010,04,03,11,44,8.10
2010,04,03,11,45,8.10
2010,04,03,11,46,6.40
2010,04,03,11,47,8.10
2010,04,03,11,48,16.10
2010,04,03,11,49,11.30
2010,04,03,11,50,9.60
2010,04,03,11,51,8.10
2010,04,03,11,52,6.40
2010,04,03,11,53,6.40
2010,04,03,11,54,8.10
2010,04,03,11,55,9.60
2010,04,03,11,56,16.10
2010,04,03,11,57,22.50
2010,04,03,11,58,16.10
2010,04,03,11,59,16.10
2010,04,03,12,00,11.30
2010,04,03,12,01,17.70
2010,04,03,12,02,16.10
2010,04,03,12,03,14.50
2010,04,03,12,04,14.50
2010,04,03,12,05,14.50
2010,04,03,12,06,16.10
2010,04,03,12,07,16.10
2010,04,03,12,08,11.30
2010,04,03,12,09,9.60
2010,04,03,12,10,8.10
2010,04,03,12,11,9.60
2010,04,03,12,12,9.60
2010,04,03,12,13,8.10
2010,04,03,12,14,11.30
2010,04,03,12,15,9.60
2010,04,03,12,16,8.10
2010,04,03,12,17,4.80
2010,04,03,12,18,8.10
2010,04,03,12,19,12.90
2010,04,03,12,20,19.30
2010,04,03,12,21,20.90
2010,04,03,12,22,12.90
2010,04,03,12,23,8.10
2010,04,03,12,24,9.60
2010,04,03,12,25,8.10
2010,04,03,12,26,4.80
2010,04,03,12,27,8.10
2010,04,03,12,28,16.10
2010,04,03,12,29,8.10
2010,04,03,12,30,4.80
2010,04,03,12,31,17.70
2010,04,03,12,32,14.50
2010,04,03,12,33,17.70
2010,04,03,12,34,17.70
2010,04,03,12,35,8.10
2010,04,03,12,36,9.60
2010,04,03,12,37,8.10
2010,04,03,12,38,6.40
2010,04,03,12,39,4.80
2010,04,03,12,40,9.60
2010,04,03,12,41,11.30
2010,04,03,12,42,6.40
2010,04,03,12,43,6.40
2010,04,03,12,44,4.80
2010,04,03,12,45,9.60
2010,04,03,12,46,9.60
2010,04,03,12,47,3.20
2010,04,03,12,48,9.60
2010,04,03,12,49,11.30
2010,04,03,12,50,9.60
2010,04,03,12,51,8.10
2010,04,03,12,52,8.10
2010,04,03,12,53,14.50
2010,04,03,12,54,8.10
2010,04,03,12,55,6.40
2010,04,03,12,56,9.60
2010,04,03,12,57,11.30
2010,04,03,12,58,11.30
2010,04,03,12,59,9.60
2010,04,03,13,00,8.10
2010,04,03,13,01,9.60
2010,04,03,13,02,8.10
2010,04,03,13,03,14.50
2010,04,03,13,04,19.30
2010,04,03,13,05,17.70
2010,04,03,13,06,11.30
2010,04,03,13,07,8.10
2010,04,03,13,08,11.30
2010,04,03,13,09,11.30
2010,04,03,13,10,11.30
2010,04,03,13,11,6.40
2010,04,03,13,12,11.30
2010,04,03,13,13,11.30
2010,04,03,13,14,8.10
2010,04,03,13,15,8.10
2010,04,03,13,16,9.60
2010,04,03,13,17,9.60
2010,04,03,13,18,6.40
2010,04,03,13,19,11.30
2010,04,03,13,20,11.30
2010,04,03,13,21,12.90
2010,04,03,13,22,16.10
2010,04,03,13,23,6.40
2010,04,03,13,24,11.30
2010,04,03,13,25,11.30
2010,04,03,13,26,8.10
2010,04,03,13,27,9.60
2010,04,03,13,28,8.10
2010,04,03,13,29,6.40
2010,04,03,13,30,6.40
2010,04,03,13,31,11.30
2010,04,03,13,32,8.10
2010,04,03,13,33,9.60
2010,04,03,13,34,8.10
2010,04,03,13,35,8.10
2010,04,03,13,36,6.40
2010,04,03,13,37,8.10
2010,04,03,13,38,9.60
2010,04,03,13,39,8.10
2010,04,03,13,40,9.60
2010,04,03,13,41,6.40
2010,04,03,13,42,8.10
2010,04,03,13,43,12.90
2010,04,03,13,44,16.10
2010,04,03,13,45,11.30
2010,04,03,13,46,8.10
2010,04,03,13,47,8.10
2010,04,03,13,48,8.10
2010,04,03,13,49,6.40
2010,04,03,13,50,8.10
2010,04,03,13,51,8.10
2010,04,03,13,52,6.40
2010,04,03,13,53,8.10
2010,04,03,13,54,4.80
2010,04,03,13,55,11.30
2010,04,03,13,56,14.50
2010,04,03,13,57,14.50
2010,04,03,13,58,11.30
2010,04,03,13,59,9.60
2010,04,03,14,00,9.60
2010,04,03,14,01,12.90
2010,04,03,14,02,8.10
2010,04,03,14,03,8.10
2010,04,03,14,04,11.30
2010,04,03,14,05,6.40
2010,04,03,14,06,6.40
2010,04,03,14,07,11.30
2010,04,03,14,08,8.10
2010,04,03,14,09,9.60
2010,04,03,14,10,11.30
2010,04,03,14,11,11.30
2010,04,03,14,12,6.40
2010,04,03,14,13,16.10
2010,04,03,14,14,12.90
2010,04,03,14,15,8.10
2010,04,03,14,16,3.20
2010,04,03,14,17,8.10
2010,04,03,14,18,9.60
2010,04,03,14,19,11.30
2010,04,03,14,20,17.70
2010,04,03,14,21,9.60
2010,04,03,14,22,19.30
2010,04,03,14,23,16.10
2010,04,03,14,24,19.30
2010,04,03,14,25,19.30
2010,04,03,14,26,22.50
2010,04,03,14,27,14.50
2010,04,03,14,28,17.70
2010,04,03,14,29,17.70
2010,04,03,14,30,14.50
2010,04,03,14,31,19.30
2010,04,03,14,32,14.50
2010,04,03,14,33,17.70
2010,04,03,14,34,17.70
2010,04,03,14,35,19.30
2010,04,03,14,36,9.60
2010,04,03,14,37,14.50
2010,04,03,14,38,17.70
2010,04,03,14,39,22.50
2010,04,03,14,40,16.10
2010,04,03,14,41,14.50
2010,04,03,14,42,11.30
2010,04,03,14,43,20.90
2010,04,03,14,44,16.10
2010,04,03,14,45,17.70
2010,04,03,14,46,16.10
2010,04,03,14,47,14.50
2010,04,03,14,48,9.60
2010,04,03,14,49,16.10
2010,04,03,14,50,22.50
2010,04,03,14,51,20.90
2010,04,03,14,52,14.50
2010,04,03,14,53,16.10
2010,04,03,14,54,14.50
2010,04,03,14,55,14.50
2010,04,03,14,56,8.10
2010,04,03,14,57,12.90
2010,04,03,14,58,19.30
2010,04,03,14,59,9.60
2010,04,03,15,00,11.30
2010,04,03,15,01,16.10
2010,04,03,15,02,16.10
2010,04,03,15,03,9.60
2010,04,03,15,04,16.10
2010,04,03,15,05,11.30
2010,04,03,15,06,16.10
2010,04,03,15,07,17.70
2010,04,03,15,08,14.50
2010,04,03,15,09,11.30
2010,04,03,15,10,14.50
2010,04,03,15,11,14.50
2010,04,03,15,12,19.30
2010,04,03,15,13,11.30
2010,04,03,15,14,11.30
2010,04,03,15,15,11.30
2010,04,03,15,16,22.50
2010,04,03,15,17,17.70
2010,04,03,15,18,17.70
2010,04,03,15,19,12.90
2010,04,03,15,20,6.40
2010,04,03,15,21,16.10
2010,04,03,15,22,14.50
2010,04,03,15,23,8.10
2010,04,03,15,24,9.60
2010,04,03,15,25,16.10
2010,04,03,15,26,11.30
2010,04,03,15,27,14.50
2010,04,03,15,28,16.10
2010,04,03,15,29,8.10
2010,04,03,15,30,9.60
2010,04,03,15,31,8.10
2010,04,03,15,32,11.30
2010,04,03,15,33,16.10
2010,04,03,15,34,17.70
2010,04,03,15,35,11.30
2010,04,03,15,36,14.50
2010,04,03,15,37,4.80
2010,04,03,15,38,12.90
2010,04,03,15,39,11.30
2010,04,03,15,40,12.90
2010,04,03,15,41,14.50
2010,04,03,15,42,11.30
2010,04,03,15,43,11.30
2010,04,03,15,44,17.70
2010,04,03,15,45,11.30
2010,04,03,15,46,8.10
2010,04,03,15,47,9.60
2010,04,03,15,48,14.50
2010,04,03,15,49,17.70
2010,04,03,15,50,19.30
2010,04,03,15,51,19.30
2010,04,03,15,52,11.30
2010,04,03,15,53,11.30
2010,04,03,15,54,12.90
2010,04,03,15,55,11.30
2010,04,03,15,56,11.30
2010,04,03,15,57,8.10
2010,04,03,15,58,11.30
2010,04,03,15,59,16.10
2010,04,03,16,00,9.60
2010,04,03,16,01,16.10
2010,04,03,16,02,19.30
2010,04,03,16,03,14.50
2010,04,03,16,04,14.50
2010,04,03,16,05,16.10
2010,04,03,16,06,8.10
2010,04,03,16,07,11.30
2010,04,03,16,08,16.10
2010,04,03,16,09,17.70
2010,04,03,16,10,20.90
2010,04,03,16,11,16.10
2010,04,03,16,12,19.30
2010,04,03,16,13,17.70
2010,04,03,16,14,16.10
2010,04,03,16,15,17.70
2010,04,03,16,16,16.10
2010,04,03,16,17,17.70
2010,04,03,16,18,16.10
2010,04,03,16,19,14.50
2010,04,03,16,20,16.10
2010,04,03,16,21,16.10
2010,04,03,16,22,19.30
2010,04,03,16,23,9.60
2010,04,03,16,24,6.40
2010,04,03,16,25,3.20
2010,04,03,16,26,9.60
2010,04,03,16,27,11.30
2010,04,03,16,28,6.40
2010,04,03,16,29,8.10
2010,04,03,16,30,16.10
2010,04,03,16,31,9.60
2010,04,03,16,32,4.80
2010,04,03,16,33,9.60
2010,04,03,16,34,8.10
2010,04,03,16,35,6.40
2010,04,03,16,36,4.80
2010,04,03,16,37,8.10
2010,04,03,16,38,4.80
2010,04,03,16,39,3.20
2010,04,03,16,40,8.10
2010,04,03,16,41,4.80
2010,04,03,16,42,4.80
2010,04,03,16,43,3.20
2010,04,03,16,44,1.60
2010,04,03,16,45,3.20
2010,04,03,16,46,3.20
2010,04,03,16,47,4.80
2010,04,03,16,48,8.10
2010,04,03,16,49,4.80
2010,04,03,16,50,4.80
2010,04,03,16,51,6.40
2010,04,03,16,52,4.80
2010,04,03,16,53,4.80
2010,04,03,16,54,0.00
2010,04,03,16,55,3.20
2010,04,03,16,56,1.60
2010,04,03,16,57,1.60
2010,04,03,16,58,3.20
2010,04,03,16,59,1.60
2010,04,03,17,00,3.20
2010,04,03,17,01,1.60
2010,04,03,17,02,0.00
2010,04,03,17,03,1.60
2010,04,03,17,04,1.60
2010,04,03,17,05,1.60
2010,04,03,17,06,1.60
2010,04,03,17,07,3.20
2010,04,03,17,08,6.40
2010,04,03,17,09,4.80
2010,04,03,17,10,0.00
2010,04,03,17,11,0.00
2010,04,03,17,12,1.60
2010,04,03,17,13,6.40
2010,04,03,17,14,8.10
2010,04,03,17,15,4.80
2010,04,03,17,16,1.60
2010,04,03,17,17,6.40
2010,04,03,17,18,6.40
2010,04,03,17,19,4.80
2010,04,03,17,20,3.20
2010,04,03,17,21,1.60
2010,04,03,17,22,1.60
2010,04,03,17,23,3.20
2010,04,03,17,24,4.80
2010,04,03,17,25,4.80
2010,04,03,17,26,3.20
2010,04,03,17,27,6.40
2010,04,03,17,28,4.80
2010,04,03,17,29,4.80
2010,04,03,17,30,3.20
2010,04,03,17,31,3.20
2010,04,03,17,32,1.60
2010,04,03,17,33,1.60